Voltar ao catálogo

CZ-6A DEB

AtivoPO
NORAD 61339·DEBRIS·🇨🇳 China

Lançado Aug 6, 2024 de Taiyuan Satellite Launch Center

Loading…

Próximas Passagens (próximas 24 horas)

TLE

AtualizadoSource: Space-Track

Época: Sep 14, 2026, 10:07 UTC

1 61339U 24140VC  26257.42215096  .00000389  00000-0  84244-4 0  9990
2 61339  88.9738 257.6916 0108157 319.9834  39.3439 14.52681559107580

Acompanhe CZ-6A DEB em tempo real com AllMySat

Download on the App Store